Simultaneous Nadir Overpasses (SNOs) Predictions

Prediction of SNOs between AQUA and NPP Satellite Orbit:

Table of predicted SNOs for the next 14.0 days since TLE Epoch: 6/15/2013
Index Date (AQUA) Time (AQUA) Lat,Lon (AQUA) SZA (AQUA ) Date (NPP) Time (NPP) Lat,Lon (NPP) SZA (NPP ) Distance(km) Time Diff (sec)
1 06/17/2013 06:22:10 -75.55, 142.21 105.10 06/17/2013 06:21:24 -75.55, 142.22 105.07 0.12 46
2 06/17/2013 07:11:16 76.51, -47.17 73.77 06/17/2013 07:11:47 76.51, -47.18 73.75 0.37 31
3 06/19/2013 22:38:30 -75.82,-101.11 105.43 06/19/2013 22:38:13 -75.82,-101.14 105.41 0.94 17
4 06/19/2013 23:27:37 76.72, 69.44 73.50 06/19/2013 23:28:37 76.71, 69.39 73.46 1.24 60
5 06/22/2013 14:05:45 74.96,-155.25 75.60 06/22/2013 14:04:40 74.95,-155.33 75.67 2.53 65
6 06/22/2013 14:54:47 -76.22, 16.02 105.87 06/22/2013 14:54:59 -76.21, 16.00 105.88 0.70 12
7 06/25/2013 06:22:00 75.46, -38.01 75.10 06/25/2013 06:21:24 75.45, -38.06 75.14 1.50 36
8 06/25/2013 07:11:04 -76.60, 133.18 106.25 06/25/2013 07:11:45 -76.60, 133.21 106.29 0.78 41
9 06/27/2013 22:38:13 75.99, 79.44 74.61 06/27/2013 22:38:06 75.99, 79.47 74.61 0.78 7




NCC Satellite Simultaneous Nadir Overpasses (SNOs) Prediction Service
